This is the latest recevied weather packets stored in our database for station/object OK1LPD-5. If no packets are shown the sender has not sent any weather packets the latest 10 day(s).
| Time | Temp. | Humidity | Pressure | Rain* | Wind** | Luminosity | Snow |
|---|---|---|---|---|---|---|---|
| 1777815613 | 28.33° C | 25% | 1004.6 hPa | 0 mm | - | - | - |
| 1777815010 | 28.89° C | 23% | 1004.7 hPa | 0 mm | - | - | - |
| 1777814409 | 29.44° C | 26% | 1004.8 hPa | 0 mm | - | - | - |
| 1777813811 | 28.89° C | 26% | 1005.1 hPa | 0 mm | - | - | - |
| 1777813209 | 28.33° C | 28% | 1005.2 hPa | 0 mm | - | - | - |
| 1777812609 | 28.89° C | 28% | 1005.4 hPa | 0 mm | - | - | - |
| 1777812011 | 29.44° C | 29% | 1005.7 hPa | 0 mm | - | - | - |
| 1777811410 | 28.89° C | 31% | 1005.9 hPa | 0 mm | - | - | - |
| 1777810809 | 28.33° C | 32% | 1006 hPa | 0 mm | - | - | - |
| 1777810211 | 28.33° C | 34% | 1006.3 hPa | 0 mm | - | - | - |
| 1777809608 | 27.22° C | 34% | 1006.5 hPa | 0 mm | - | - | - |
| 1777809008 | 28.33° C | 32% | 1007 hPa | 0 mm | - | - | - |
| 1777808411 | 27.78° C | 35% | 1007.1 hPa | 0 mm | - | - | - |
| 1777807808 | 27.22° C | 33% | 1007.5 hPa | 0 mm | - | - | - |
| 1777807208 | 26.11° C | 37% | 1007.7 hPa | 0 mm | - | - | - |
| 1777806612 | 25.56° C | 38% | 1008 hPa | 0 mm | - | - | - |
| 1777806015 | 25.56° C | 39% | 1008.2 hPa | 0 mm | - | - | - |
| 1777805409 | 25° C | 37% | 1008.6 hPa | 0 mm | - | - | - |
| 1777804811 | 25° C | 38% | 1008.6 hPa | 0 mm | - | - | - |
| 1777804210 | 25° C | 37% | 1009.1 hPa | 0 mm | - | - | - |
| 1777803609 | 25° C | 37% | 1009.3 hPa | 0 mm | - | - | - |
| 1777803010 | 25° C | 37% | 1009.6 hPa | 0 mm | - | - | - |
| 1777802410 | 25° C | 36% | 1009.8 hPa | 0 mm | - | - | - |
| 1777801809 | 25° C | 37% | 1010.3 hPa | 0 mm | - | - | - |
| 1777801210 | 25° C | 37% | 1010.6 hPa | 0 mm | - | - | - |
* Rain latest hour (hover to see other rain measurements)
** Current wind speed in m/s (hover to see current wind gust speed)